This is the latest recevied weather packets stored in our database for station/object WB8ZGM-13. If no packets are shown the sender has not sent any weather packets the latest 10 day(s).
| Time | Temp. | Humidity | Pressure | Rain* | Wind** | Luminosity | Snow |
|---|---|---|---|---|---|---|---|
| 1777678567 | 17.22° C | 42% | 996.1 hPa | 0 mm | - | - | - |
| 1777677637 | 17.22° C | 40% | 996.1 hPa | 0 mm | - | - | - |
| 1777676737 | 18.33° C | 40% | 996.1 hPa | 0 mm | - | - | - |
| 1777675836 | 18.89° C | 45% | 995.8 hPa | 0 mm | - | - | - |
| 1777674936 | 18.33° C | 46% | 995.6 hPa | 0 mm | - | - | - |
| 1777674037 | 18.33° C | 49% | 995.5 hPa | 0 mm | - | - | - |
| 1777673106 | 18.89° C | 50% | 995.5 hPa | 0 mm | - | - | - |
| 1777672176 | 19.44° C | 51% | 995.6 hPa | 0 mm | - | - | - |
| 1777671246 | 19.44° C | 51% | 995.8 hPa | 0 mm | - | - | - |
| 1777670316 | 19.44° C | 49% | 995.8 hPa | 0 mm | - | - | - |
| 1777669386 | 20° C | 51% | 996.2 hPa | 0 mm | - | - | - |
| 1777668486 | 20° C | 49% | 996.1 hPa | 0 mm | - | - | - |
| 1777667556 | 20.56° C | 46% | 996.4 hPa | 0 mm | - | - | - |
| 1777666656 | 21.11° C | 47% | 996.4 hPa | 0 mm | - | - | - |
| 1777665726 | 21.67° C | 47% | 996.9 hPa | 0 mm | - | - | - |
| 1777664796 | 21.11° C | 50% | 997 hPa | 0 mm | - | - | - |
| 1777663866 | 21.11° C | 52% | 997 hPa | 0 mm | - | - | - |
| 1777662966 | 20.56° C | 54% | 997.1 hPa | 0 mm | - | - | - |
| 1777662066 | 21.67° C | 50% | 997.1 hPa | 0 mm | - | - | - |
| 1777661165 | 21.11° C | 52% | 997.1 hPa | 0 mm | - | - | - |
| 1777660235 | 22.22° C | 52% | 997 hPa | 0 mm | - | - | - |
| 1777659335 | 21.11° C | 52% | 997 hPa | 0 mm | - | - | - |
| 1777658405 | 20.56° C | 51% | 997.1 hPa | 0 mm | - | - | - |
| 1777657475 | 21.11° C | 51% | 997.2 hPa | 0 mm | - | - | - |
| 1777656545 | 21.11° C | 50% | 997.3 hPa | 0 mm | - | - | - |
* Rain latest hour (hover to see other rain measurements)
** Current wind speed in m/s (hover to see current wind gust speed)